TimeEST,TemperatureF,Dew PointF,Humidity,Sea Level PressureIn,VisibilityMPH,Wind Direction,Wind SpeedMPH,Gust SpeedMPH,PrecipitationIn,Events,Conditions,WindDirDegrees,DateUTC
12:56 AM,26.1,21.0,81,30.41,7.0,NW,4.6,-,N/A,,Clear,310,2013-03-08 05:56:00
1:56 AM,25.2,20.1,81,30.42,7.0,NNW,5.8,-,N/A,,Clear,340,2013-03-08 06:56:00
2:56 AM,24.1,19.0,81,30.41,7.0,NNW,3.5,-,N/A,,Clear,330,2013-03-08 07:56:00
3:56 AM,22.1,18.1,85,30.42,7.0,NW,3.5,-,N/A,,Clear,310,2013-03-08 08:56:00
4:56 AM,19.0,16.2,89,30.44,6.0,North,4.6,-,N/A,,Clear,10,2013-03-08 09:56:00
5:56 AM,20.1,17.1,88,30.47,7.0,North,4.6,-,N/A,,Clear,350,2013-03-08 10:56:00
6:56 AM,19.0,17.1,92,30.48,3.0,North,3.5,-,N/A,,Clear,350,2013-03-08 11:56:00
7:56 AM,23.0,20.1,89,30.50,4.0,NNW,3.5,-,N/A,,Clear,340,2013-03-08 12:56:00
8:56 AM,28.0,23.0,81,30.50,4.0,NE,3.5,-,N/A,,Haze,50,2013-03-08 13:56:00
9:56 AM,31.1,21.0,66,30.50,7.0,NE,6.9,-,N/A,,Clear,50,2013-03-08 14:56:00
10:56 AM,32.0,19.0,59,30.51,7.0,East,6.9,-,N/A,,Clear,80,2013-03-08 15:56:00
11:56 AM,34.0,19.0,54,30.51,7.0,ENE,3.5,-,N/A,,Clear,70,2013-03-08 16:56:00
12:56 PM,34.0,21.0,59,30.49,8.0,ENE,8.1,-,N/A,,Clear,60,2013-03-08 17:56:00
1:56 PM,34.9,23.0,62,30.47,7.0,East,5.8,-,N/A,,Clear,80,2013-03-08 18:56:00
2:56 PM,36.0,23.0,59,30.48,6.0,Calm,Calm,-,N/A,,Haze,0,2013-03-08 19:56:00
3:56 PM,36.9,24.1,60,30.46,7.0,ESE,3.5,-,N/A,,Clear,120,2013-03-08 20:56:00
4:56 PM,36.9,24.1,60,30.45,7.0,East,6.9,-,N/A,,Clear,80,2013-03-08 21:56:00
5:56 PM,34.9,25.2,68,30.43,7.0,ENE,8.1,-,N/A,,Clear,60,2013-03-08 22:56:00
6:56 PM,32.0,23.0,69,30.45,9.0,NNE,3.5,-,N/A,,Clear,30,2013-03-08 23:56:00
7:56 PM,31.1,23.0,72,30.45,8.0,North,3.5,-,N/A,,Clear,10,2013-03-09 00:56:00
8:56 PM,27.1,22.1,81,30.45,8.0,NE,3.5,-,N/A,,Clear,40,2013-03-09 01:56:00
9:56 PM,29.1,22.1,75,30.45,7.0,Calm,Calm,-,N/A,,Clear,0,2013-03-09 02:56:00
10:56 PM,23.0,20.1,89,30.44,6.0,ENE,5.8,-,N/A,,Clear,70,2013-03-09 03:56:00
11:56 PM,25.2,22.1,88,30.43,6.0,NE,4.6,-,N/A,,Clear,40,2013-03-09 04:56:00